Regional Weather Roundup
Issued by NWS Charleston, SC

Current Version | Previous Version | Text Only | Print | Product List | Glossary On
Versions: 1 2 3 4 5 6 7 8 9 10 11 12 13 14 15 16 17 18 19 20 21 22 23 24 25 26 27 28 29 30 31 32 33 34 35 36 37 38 39 40 41 42 43 44 45 46 47 48 49 50
000 ASUS42 KCHS 210610 RWRCHS REGIONAL WEATHER ROUNDUP NATIONAL WEATHER SERVICE CHARLESTON SC 200 AM EDT THU AUG 21 2014 NOTE: "FAIR" INDICATES FEW OR NO CLOUDS BELOW 12,000 FEET WITH NO SIGNIFICANT WEATHER AND/OR OBSTRUCTIONS TO VISIBILITY. NOT ALL STATIONS ARE QUALITY CONTROLLED BY THE NATIONAL WEATHER SERVICE. USE DATA WITH CAUTION...ESPECIALLY DEWPOINT OBSERVATIONS. SCZ027-030-031-034>040-042>050-210700- ...SOUTH CAROLINA... CITY SKY/WX TMP DP RH WIND PRES REMARKS N CHARLESTON FAIR 80 74 81 S3 30.02F 6HR MIN TEMP: 80; 6HR MAX TEMP: 90; WATERFRONT PRK N/A 84 N/A N/A W5 N/A FORT JOHNSON NOT AVBL MOUNT PLEASANT FAIR 82 77 83 CALM 30.02F HX 91 JOHNS ISLAND CLEAR 81 79 94 CALM 30.03F PINOPOLIS N/A 82 73 74 W7 29.95S MONCKS CORNER N/A 79 75 89 CALM 30.01F SUMMERVILLE FAIR 77 75 94 CALM 30.03F BEAUFORT MCAS FAIR 78 71 79 NW6 30.03F 6HR MIN TEMP: 78; 6HR MAX TEMP: 87; BEAUFORT ARPT FAIR 79 72 78 CALM 30.02F HILTON HEAD IS FAIR 81 72 74 W3 30.04F GEORGETOWN NOT AVBL WALTERBORO FAIR 77 77 100 W3 30.03F ORANGEBURG FAIR 77 69 76 CALM 30.03F 6HR MIN TEMP: 76; 6HR MAX TEMP: 85; BARNWELL FAIR 75 70 83 W3 30.05S AIKEN FAIR 75 72 88 CALM 30.08F MANNING FAIR 79 79 100 CALM 30.02S KINGSTREE NOT AVBL COLUMBIA MOCLDY 80 70 71 W6 30.02F 6HR MIN TEMP: 80; 6HR MAX TEMP: 88; SUMTER FAIR 80 73 78 W9 30.00F 6HR MIN TEMP: 79; 6HR MAX TEMP: 87; FLORENCE FAIR 77 74 90 CALM 30.01F 6HR MIN TEMP: 76; 6HR MAX TEMP: 85; 6HR PCP: TRACE; MYRTLE BEACH FAIR 79 75 89 CALM 30.01F N MYRTLE BEACH FAIR 78 77 96 CALM 30.01S FOG 6HR MIN TEMP: 77; 6HR MAX TEMP: 83; 6HR PCP: TRACE; $$ GAZ063-065-086>088-099>101-113>116-118-119-134-136>141-150-210700- ...GEORGIA... CITY SKY/WX TMP DP RH WIND PRES REMARKS SAVANNAH ARPT FAIR 77 70 79 W6 30.05F 6HR MIN TEMP: 77; 6HR MAX TEMP: 88; HUNTER AAF FAIR 76 71 82 SW3 30.03F 6HR MIN TEMP: 76; 6HR MAX TEMP: 87; FORT STEWART FAIR 76 70 81 NW3 30.05F 6HR MIN TEMP: 76; 6HR MAX TEMP: 88; 6HR PCP: TRACE; STATESBORO NOT AVBL SYLVANIA FAIR 74 74 97 W3 30.06F CLAXTON FAIR 73 73 100 W5 30.08R THOMSON FAIR 75 74 98 CALM 30.10F AUGUSTA-BUSH FAIR 74 68 81 W5 30.04F 6HR MIN TEMP: 72; 6HR MAX TEMP: 78; AUGUSTA-DANIEL FAIR 78 69 73 VRB3 30.06S SWAINSBORO FAIR 75 72 88 W5 30.08F VIDALIA N/A 72 70 94 SW3 30.09F ALMA FAIR 76 69 79 NW6 30.08F 6HR MIN TEMP: 74; 6HR MAX TEMP: 82; WAYCROSS FAIR 77 74 90 W6 30.07F JESUP N/A 77 72 83 SW6 30.07S BRUNSWICK FAIR 77 70 78 W3 30.07F SAINT SIMONS FAIR 79 71 76 SW6 30.06F 6HR MIN TEMP: 79; 6HR MAX TEMP: 86; $$ SCZ027-028-034-036>038-045-046-048>050-GAZ119-141-210700- ...LAKE AND SUPPLEMENTAL COASTAL OBSERVATIONS... STATION/POSITION TIME TEMP WIND PRES WAVE SWELL AIR SEA DIR/SP/G HT/PER HT/PER/DIR (UTC) (F) (DEG/KT/KT) (MB) (FT/S) (FT/S/D) UPR LAKE MARION NOT AVBL WINYAH BAY 0500 79 250/ 1 1016.0F LAKE MURRAY 0500 80 300/ 2/ 4 1016.3F ACE BASIN NERRS 0500 81 CALM 1017.0F FORT PULASKI 0600 80 290/ 4/ 6 1017.6R SAPELO ISLAND 0500 81 320/ 2 1019.0S $$ ANZ835-935-AMZ111-154-330-350-352-354-374-450-454-472-210700- ...C-MAN AND BUOY OBSERVATIONS... STATION/POSITION TIME TEMP WIND PRES WAVE SWELL AIR SEA DIR/SP/G HT/PER HT/PER/DIR (UTC) (F) (DEG/KT/KT) (MB) (FT/S) (FT/S/D) FOLLY BEACH CMAN 0500 82 260/ 3/ 5 1017.6R BUOY 41004 0600 83 84 220/ 10/ 12 1016.0F 3/ 4 2/ 8 BUOY 41008 0600 85 85 300/ 8/ 10 1017.4F 2/ 3 2/110/ 9 5E ST. MARYS GA 0600 82 N/A 1/ 3 FRYING PAN BUOY NOT AVBL BUOY 41025 0600 78 CALM / 4 1016.3F 2/ 8 CAPE LOOKOUT NC 0500 80 230/ 5/ 6 1016.7F BUOY 41002 0457 81 81 250/ 14/ 16 1018.2F 3/ 7 2/250/ 7 BUOY 41010 0600 84 85 190/ 12/ 16 1018.7F 2/ 9 2/110/ 9 BUOY 41012 NOT AVBL ST AUGUSTINE FL 0600 78 220/ 4/ 5 1019.1F CAPERS NEARSHORE 0500 85 240/ 8/ 10 N/A FRIPP NEARSHORE NOT AVBL $$

USA.gov is the U.S. government's official web portal to all federal, state and local government web resources and services.